Let Them Eat Vinyl Rec. - 118 products

# Barcode Catalog # Artist Title Format Release Date Price code
102698 803343236897 LETV593LP The Fall The Light User Syndrome DOUBLE LP Gatefold 01-15-2021 SW908
102696 803343255164 LETV605LP Stiff Little Fingers Get A Life DOUBLE LP Gatefold 01-15-2021 SW914
102695 803343255171 LETV606LP Stiff Little Fingers Flags And Emblems LP Gatefold 01-15-2021 SW943
102671 803343249323 LETV600LP Mott Gooseberry Sessions DOUBLE LP GATEFOLD COLOURED 01-15-2021 SW908
102670 803343255119 LETV604LP Jimmy Page Tribute To Alexis Korner Vol.2 DOUBLE LP Gatefold 02-05-2021 SW908
101486 803343226263 LETV586LP The Fall Live TJ's, New Port 16/04/01 DOUBLE LP Gatefold 12-18-2020 SW914
101326 803343226256 LETV585LP The Fall Live Stage, Stoke 30/11/97 DOUBLE LP Gatefold 12-18-2020 SW914
101325 803343226249 LETV584LP The Fall Live London Astoria 23/10/95 DOUBLE LP Gatefold 12-18-2020 SW914
101323 803343226270 LETV587LP The Fall Assembly Rooms, Derby, UK 5th June 1994 DOUBLE LP Gatefold 12-18-2020 SW914
101322 803343221046 LETV581LP Mark E Smith The Post Nearly Man LP 12-11-2020 SW943
100285 803341519312 LETV184LPLTD Marilyn Manson Dancing With The Antichrist LP Gatefold Coloured 11-27-2020 SW908
100241 803343218220 LETV573LP Bob Marley Diamonds Are Forever Vol.2 DOUBLE LP Gatefold 11-27-2020 SW908
100240 803343218213 LETV572LP Bob Marley Diamonds Are Forever Vol.1 DOUBLE LP Gatefold 11-27-2020 SW908
95033 803343255065 LETV601LP New Model Army Live At Rock City Nottingham 1989 DOUBLE LP GATEFOLD COLOURED 07-17-2020 SW908
94484 803343226225 LETV582LP The Fall A Part Of America Therein 1981 DOUBLE LP Gatefold 10-02-2020 SW908
94483 803343232493 LETV592LP Eric Clapton Historic Recordings Vol.2 DOUBLE LP GATEFOLD COLOURED 12-11-2020 SW908
94482 803343218206 LETV571LP Eric Clapton Historic Recordings Vol.1 DOUBLE LP GATEFOLD COLOURED 12-11-2020 SW908
94458 803343249316 LETV599LP The Korgis Kollection DOUBLE LP Gatefold 06-12-2020 SW908
92716 803343249293 LETV597LP Stone The Crows Live At Montreux 1972 LP 06-12-2020 SW911
92715 803343249262 LETV594LP Humble Pie On To Victory LP Gatefold 06-12-2020 SW908
92714 803343249309 LETV598LP Culture Club Live At Royal Albert Hall DOUBLE LP Gatefold 06-12-2020 SW908
92713 803343249767 PARA315LPLTD Nirvana Under The Covers DOUBLE LP GATEFOLD COLOURED 06-12-2020 SW908
92712 803343224672 PARA315LP Nirvana Under The Covers DOUBLE LP Gatefold 06-12-2020 SW913
92711 803343214109 LETV570LP The Fall The Idiot Joy Show LP Gatefold 08-07-2020 SW908
92710 803343220988 LETV575LP The Fall Live At Phoenix Festival 1995 LP Gatefold 08-07-2020 SW908
92709 803343220971 LETV574LP The Fall Interim LP 08-07-2020 SW908
92604 803343249279 LETV595LP Yes Live At Glastonbury Festival 2003 DOUBLE LP Gatefold 06-12-2020 SW908
81739 803341459106 LETV260LP Stiff Little Fingers Pure Fingers (St. Patrix: Live In Glasgow 1993) DOUBLE LP GATEFOLD COLOURED 08-02-2019 SW914
79843 803343150919 LETV556LP Goo Goo Dolls Hold Me Up LP Gatefold Coloured 05-17-2019 SW913
79839 803343150902 LETV555LP Goo Goo Dolls Jed LP Gatefold Coloured 05-17-2019 SW913
73932 803341462182 LETV318LP N.E.R.D. Live At The Babylon DOUBLE LP Gatefold 10-26-2018 SW913
72231 803341505728 LETV509LP Toy Dolls Idle Gossip DOUBLE LP GATEFOLD COLOURED 11-30-2018 SW914
72230 803341505711 LETV508LP Toy Dolls A Far Out Disc LP Gatefold 11-16-2018 SW943
72222 803343165432 LETV563LP JJ Cale In Session LP 10-12-2018 SW943
71097 803343119169 LETV531LP Eddie And The Hot Rods Doing Anything They Wanna Do... DOUBLE LP GATEFOLD COLOURED 07-20-2018 SW914
71095 803343118766 LETV530LP Eddie And The Hot Rods Teenage Depression LP Gatefold Coloured 07-20-2018 SW943
62915 803341499515 LETV479LP Ministry Sphinctour DOUBLE LP GATEFOLD COLOURED 10-27-2017 SW914
62775 803343165074 LETV559LP Cockney Rejects The Power & The Glory LP Gatefold Coloured 11-24-2017 SW943
62774 803343165067 LETV558LP Cockney Rejects Greatest Hits Vol.2 DOUBLE LP Gatefold 11-24-2017 SW914
62773 803343165050 LETV557LP Cockney Rejects Greatest Hits Vol.1 LP Gatefold 12-08-2017 SW943
62772 803341460645 LETV297LP Chelsea Mission Impossible LP Gatefold 12-29-2017 SW943
57767 803341502307 LETV490LP The Fall Totale's Turn (It's Now Or Never) LP Gatefold 04-21-2017 SW943
57765 803341502284 LETV488LP The Fall A Part Of America Therein 1981 DOUBLE LP Gatefold 04-21-2017 SW914
55612 803341505759 LETV512LP Toy Dolls Fat Bob's Feet LP Gatefold 03-03-2017 SW943
55611 803341505735 LETV510LP Toy Dolls Wakey Wakey! LP Gatefold 03-03-2017 SW943
55608 803341505797 LETV516LP Toy Dolls On Stage In Stuttgart DOUBLE LP Gatefold 03-03-2017 SW914
55607 803341505780 LETV515LP Toy Dolls One More Megabyte LP Gatefold 03-03-2017 SW943
55605 803341505742 LETV511LP Toy Dolls Twenty Two Tunes Live From Tokyo DOUBLE LP Gatefold 03-03-2017 SW914
55603 803341505766 LETV513LP Toy Dolls Absurd Ditties LP Gatefold 03-03-2017 SW943
55600 803341505773 LETV514LP Toy Dolls Orchestrated LP Gatefold 03-03-2017 SW943
54043 803341460690 LETV306LP Extreme Noise Terror A Holocaust In Your Head LP Gatefold 12-16-2016 SW943
52587 803341505834 LETV520LP Discharge Society's Victims - Volume 1 DOUBLE LP Gatefold 10-14-2016 SW914
52584 803341508262 LETV522LP Discharge Society's Victims - Volume 2 DOUBLE LP Gatefold 10-14-2016 SW914
52299 803341492288 LETV446LP Discharge Hear Nothing See Nothing Say Nothing LP Gatefold 09-23-2016 SW943
52288 803341493766 LETV458LP Discharge Live At The City Garden New Jersey LP Gatefold 09-23-2016 SW943
52287 803341493780 LETV460LP GBH Leather, Bristles, Studs And Acne. LP Gatefold 09-23-2016 SW943
52286 803341497702 LETV471LP GBH Race Against Time - The Complete Clay Recordings Volume 1 DOUBLE LP Gatefold 09-25-2016 SW914
52285 803341497696 LETV470LP GBH The Punk Singles 1981-84 DOUBLE LP Gatefold 09-23-2016 SW914
52281 803341497726 LETV473LP GBH Race Against Time - The Complete Clay Recordings Volume 2 DOUBLE LP Gatefold 09-23-2016 SW914
52280 803341493773 LETV459LP Discharge The Nightmare Continues... LP Gatefold 09-23-2016 SW943
52182 803341497689 LETV469LP GBH City Baby's Revenge DOUBLE LP Gatefold 09-16-2016 SW914
52179 803341505698 LETV506LP Discharge Decontrol - The Singles DOUBLE LP GATEFOLD COLOURED 09-16-2016 SW914
52177 803341493728 LETV454LP Discharge Grave New World LP Gatefold 09-16-2016 SW943
52175 803341492257 LETV443LP Discharge Why LP Gatefold 09-16-2016 SW943
51329 803341493742 LETV456LP Discharge Shootin Up The World LP Gatefold 08-05-2016 SW943
51327 803341502314 LETV492LP Public Image LTD Live At Rockpalast 1983 DOUBLE LP Gatefold 08-05-2016 SW913
51326 803341493735 LETV455LP Discharge Massacre Divine LP Gatefold 08-05-2016 SW911
51325 803341493759 LETV457LP Discharge Discharge LP Gatefold Coloured 08-05-2016 SW911
48913 803341438217 LETV218LP Massive Attack Live At The Royal Albert Hall 1998 DOUBLE LP Gatefold 05-13-2016 SW914
48588 803341456051 LETV242LP Bob Dylan 1960s Broadcasts: Hard Times & Ramblin' 'Round 3LP BOX 04-29-2016 SW961
48115 803341494947 LETV464LP The Allman Brothers Band Live At Cow Palace Volume 3 DOUBLE LP Gatefold 04-08-2016 SW914
48113 803341494930 LETV463LP The Allman Brothers Band Live At Cow Palace Volume 2 DOUBLE LP Gatefold 04-08-2016 SW914
48042 803341480148 LETV408LP Frank Zappa Masked Turnip Cyclophony DOUBLE LP Gatefold 04-08-2016 SW914
48036 803341492264 LETV444LP Lou Reed New York In LA 1989 DOUBLE LP Gatefold 04-08-2016 SW914
48035 803341493674 LETV449LP The Meteors Stampede LP Gatefold 04-08-2016 SW943
48020 803341471702 LETV378LP UB40 Live 2009, Volume 1 DOUBLE LP Gatefold 04-01-2016 SW934
47660 803341488540 LETV419LP Gov't Mule Gov't Mule DOUBLE LP Gatefold 03-18-2016 SW914
47659 803341480131 LETV407LP Hüsker Dü Minneapolis Moonstomp 1985 DOUBLE LP Gatefold 03-18-2016 SW914
47656 803341480100 LETV404LP The Allman Brothers Band Live At Cow Palace Volume 1 DOUBLE LP Gatefold 03-18-2016 SW914
47650 803341488496 LETV414LP Stevie Ray Vaughan Bumbershoot Arts Festival 1985 DOUBLE LP Gatefold 03-18-2016 SW914
47640 803341476301 LETV399LP Hole Grease Your Hips / California 1994 DOUBLE LP Gatefold 03-18-2016 SW934
46136 803341458383 LETV255LP The Damned Fiendish Shadows DOUBLE LP Gatefold 12-25-2015 SW914
45478 803341458390 LETV256LP The Damned Punk Oddities & Rare Tracks DOUBLE LP Gatefold 11-20-2015 SW936
45331 803341473539 LETV384LP Tom Petty And The Heartbreakers rn Accents In The Sunshine State Volume 1 DOUBLE LP Gatefold 11-13-2015 SW936
45211 803341473546 LETV385LP Tom Petty And The Heartbreakers Southern Accents In The Sunshine State Volume 2 DOUBLE LP Gatefold 11-06-2015 SW936
45208 803341462229 LETV322LP Ramones The Buffalo Bop 1979 Broadcast LP Gatefold 11-06-2015 SW913
45172 803341460737 LETV304LP Hawkwind Distant Horizons DOUBLE LP Gatefold 10-30-2015 SW936
45166 803341460584 LETV291LP Hawkwind P.X.R.5 DOUBLE LP Gatefold 10-30-2015 SW936
45160 803341470453 LETV374LP Bruce Springsteen The 1973 Acoustic Radio Sessions DOUBLE LP Gatefold 10-30-2015 SW936
45004 803341460706 LETV307LP Hawkwind Warrior On The Edge Of Time LP Gatefold 10-23-2015 SW943
44949 803341459212 LETV271LP The Meteors Psychobilly Rules! - The Collection DOUBLE LP Gatefold 10-16-2015 SW914
44522 803341460621 LETV295LP Hawkwind Independant Days Volumes 1 & 2 DOUBLE LP Gatefold 09-18-2015 SW914
43807 803341459090 LETV259LP Bruce Springsteen And The E Street Band Winterland Night 1978 Volume Three LP Gatefold 07-27-2015 SW934
43806 803341459083 LETV258LP Bruce Springsteen And The E Street Band Winterland Night 1978 Volume Two DOUBLE LP Gatefold 07-27-2015 SW936
43242 803341433779 LETV193LP The Exploited On Stage LP Gatefold 06-29-2015 SW943
42804 803341448421 LETV367LP Pearl Jam Aladdin - Las Vegas 1993 Radio Broadcast DOUBLE LP Gatefold 06-15-2015 SW914
42155 803341436367 LETV207LP Tom Waits A Small Affair In Ohio - Live In Cleveland 1977 DOUBLE LP Gatefold 05-04-2015 SW914
41314 803341436374 LETV208LP Suzanne Vega Live At The Speakeasy NYC 1985 DOUBLE LP Gatefold 03-02-2015 SW936
41163 803341424227 LETV182LP Frank Zappa Puttin' On The Ritz: The Classic N.Y.C. Broadcast 1981 4LP BOX 02-02-2015 SW937
40872 803341444461 LETV359LP The Damned Another Live Album From The Damned... DOUBLE LP Gatefold 01-19-2015 SW914
40633 803341423350 LETV178LP The Damned The Black Album TRIPLE LP 12-15-2014 SW960
40078 803341426078 LETV186LP The Damned Tiki Nightmare - Live in London DOUBLE LP 10-20-2014 SW913
40077 803341426054 LETV184LP Marilyn Manson & The Spooky Kids Dancing With The Antichrist LP Gatefold 10-20-2014 SW943
39545 803341423374 LETV180LP The Damned The Chiswick Singles DOUBLE LP 09-29-2014 SW914
39420 803341433274 LETV191LP Bruce Springsteen Live at the Main Point 1975 Vol.2 DOUBLE LP Gatefold 09-01-2014 SW914
39280 803341420168 LETV158LP Tom Petty In the Coliseum DOUBLE LP 08-08-2014 SW914
39268 803341406216 LETV133LP Anti Nowhere League We are... The League DOUBLE LP 08-08-2014 SW913
39258 803341416840 LETV148LP Tom Waits My Father's Place DOUBLE LP 08-08-2014 SW913
37815 803341420465 LETV164LP Lou Reed Winter at the Roxy (The 1976 L.A. Broadcast) DOUBLE LP 03-28-2014 SW914
34532 803341367654 LETV060LP Leonard Cohen Angels at my Shoulder Live 1993 DOUBLE LP 04-26-2013 SW911
34208 803341363748 LETV052LP Bob Dylan Dylan's Dream LP Gatefold 03-22-2013 SW943
33174 803341366329 LETV059LP Bob Dylan The Minneapolis Hotel Tape and the Gaslight Cafe DOUBLE LP Gatefold 11-22-2012 SW914
32842 803341363809 LETV058LP The Allman Brothers Band A&R Studios: New York, 26th August 1971 DOUBLE LP Gatefold 10-04-2012 SW911
32723 803341359000 LETV048LP Green Day On the Radio DOUBLE LP Gatefold 09-13-2012 SW914
32448 803341358973 LETV045LP Pearl Jam The Broadcasts 1992 DOUBLE LP Gatefold 08-16-2012 SW914
32439 803341358980 LETV039LP Bob Dylan Carnegie Chapter Hall 1961 DOUBLE LP Gatefold 08-16-2012 SW914
30399 803341350342 LETV033LP Bob Dylan Folksinger's Choice DOUBLE LP Gatefold 02-23-2012 SW911
30395 803341350977 LETV038LP Tom Waits Round Midnight - The Minneapolis Broadcast 1975 DOUBLE LP Gatefold 02-23-2012 SW911